CW1509 Weather Reports


Display with metric or nautical units.
time (UTC)temp
F
wind
direction
speed
MPH
gust
MPH
rain 1hr
in
rain 24hr
in
rain mn
in
humidity
%
barometer
mb
20260503032434 39 360 0.0 0.0 0.00 0.00 0.00 71 1016.7
20260503031934 39 360 0.0 0.0 0.00 0.00 0.00 71 1016.8
20260503031414 39 360 0.0 0.0 0.00 0.00 0.00 71 1016.7
20260503030914 40 360 0.0 0.0 0.00 0.00 0.00 71 1016.8
20260503030435 40 360 0.0 0.0 0.00 0.00 0.00 70 1016.8
20260503025915 40 360 0.0 0.0 0.00 0.00 0.00 68 1016.8
20260503025436 40 360 0.0 0.0 0.00 0.00 0.00 68 1016.9
20260503024917 40 360 0.0 0.0 0.00 0.00 0.00 68 1016.9
20260503024416 41 360 0.0 0.0 0.00 0.00 0.00 67 1016.9
20260503024003 41 360 0.0 0.0 0.00 0.00 0.00 67 1016.9
20260503023419 41 360 0.0 0.0 0.00 0.00 0.00 67 1016.9
20260503022918 41 360 0.0 0.0 0.00 0.00 0.00 66 1016.9
20260503022418 41 360 0.0 0.0 0.00 0.00 0.00 65 1016.9
20260503021918 42 360 0.0 0.0 0.00 0.00 0.00 65 1016.9
20260503021419 42 360 0.0 0.0 0.00 0.00 0.00 65 1016.9
20260503020921 42 360 0.0 0.0 0.00 0.00 0.00 64 1016.9
20260503020421 42 360 0.0 0.0 0.00 0.00 0.00 63 1016.9
20260503015921 43 360 0.0 0.0 0.00 0.00 0.00 63 1016.8
20260503015421 43 360 0.0 0.0 0.00 0.00 0.00 63 1016.8
20260503014922 44 360 0.0 0.0 0.00 0.00 0.00 61 1016.7
20260503014422 44 360 0.0 0.0 0.00 0.00 0.00 61 1016.9
20260503013922 44 360 0.0 0.0 0.00 0.00 0.00 59 1016.8
20260503013420 45 360 0.0 0.0 0.00 0.00 0.00 58 1016.8
20260503012922 45 360 0.0 0.0 0.00 0.00 0.00 56 1016.8
20260503012422 46 360 0.0 0.0 0.00 0.00 0.00 55 1016.8
20260503011920 46 360 0.0 0.0 0.00 0.00 0.00 53 1016.7
20260503011423 47 360 0.0 0.0 0.00 0.00 0.00 51 1016.8
20260503010923 48 360 0.0 0.0 0.00 0.00 0.00 50 1016.9
20260503010422 48 360 0.0 0.0 0.00 0.00 0.00 48 1016.8
20260503005925 48 360 0.0 0.0 0.00 0.00 0.00 48 1016.8
20260503005427 49 360 0.0 0.0 0.00 0.00 0.00 46 1016.9
20260503004949 49 360 0.0 0.0 0.00 0.00 0.00 45 1016.8
20260503004430 49 360 0.0 0.0 0.00 0.00 0.00 45 1016.8
20260503003934 49 360 0.0 0.0 0.00 0.00 0.00 46 1016.8
20260503003416 49 360 0.0 0.0 0.00 0.00 0.00 45 1016.9
20260503002918 50 360 0.0 0.0 0.00 0.00 0.00 45 1016.8
20260503002439 50 360 0.0 0.0 0.00 0.00 0.00 42 1016.8
20260503001941 50 360 0.0 0.0 0.00 0.00 0.00 42 1016.8
20260503001420 50 360 0.0 0.0 0.00 0.00 0.00 42 1016.8
20260503000923 50 360 0.0 0.0 0.00 0.00 0.00 42 1016.8
20260503000425 50 360 0.0 1.0 0.00 0.00 0.00 42 1016.8
20260502235948 50 360 0.0 3.0 0.00 0.00 0.00 40 1016.8
20260502235425 51 360 1.0 3.0 0.00 0.00 0.00 40 1016.9
20260502234923 51 360 0.0 4.0 0.00 0.00 0.00 41 1016.9
20260502234427 51 360 2.0 4.0 0.00 0.00 0.00 40 1017.0
20260502233928 51 360 0.0 3.0 0.00 0.00 0.00 39 1017.0
20260502233429 51 360 1.0 3.0 0.00 0.00 0.00 39 1017.0
20260502232925 51 360 1.0 4.0 0.00 0.00 0.00 38 1017.0
20260502232426 52 360 1.0 4.0 0.00 0.00 0.00 38 1017.1
20260502231923 52 360 1.0 3.0 0.00 0.00 0.00 38 1017.0
20260502231419 52 360 0.0 4.0 0.00 0.00 0.00 38 1017.1
20260502230916 52 360 1.0 4.0 0.00 0.00 0.00 37 1017.1
20260502230438 52 360 2.0 6.0 0.00 0.00 0.00 37 1017.1
20260502225938 52 360 3.0 6.0 0.00 0.00 0.00 36 1017.1
20260502225418 52 360 2.0 5.0 0.00 0.00 0.00 37 1017.2
20260502224918 53 360 3.0 5.0 0.00 0.00 0.00 37 1017.2
20260502224417 53 360 1.0 6.0 0.00 0.00 0.00 36 1017.3
20260502223938 53 360 2.0 6.0 0.00 0.00 0.00 36 1017.2
20260502223416 53 360 2.0 5.0 0.00 0.00 0.00 35 1017.2
20260502222917 53 360 1.0 5.0 0.00 0.00 0.00 38 1017.2
20260502222419 53 360 0.0 6.0 0.00 0.00 0.00 37 1017.2
20260502221917 53 360 2.0 6.0 0.00 0.00 0.00 36 1017.2
20260502221432 53 360 2.0 6.0 0.00 0.00 0.00 36 1017.3
20260502220958 53 360 1.0 4.0 0.00 0.00 0.00 36 1017.2
20260502220434 53 360 1.0 5.0 0.00 0.00 0.00 37 1017.3
20260502215931 53 360 1.0 5.0 0.00 0.00 0.00 34 1017.3
20260502215452 54 360 1.0 6.0 0.00 0.00 0.00 36 1017.3
20260502214931 54 360 1.0 6.0 0.00 0.00 0.00 35 1017.2
20260502214428 54 360 2.0 5.0 0.00 0.00 0.00 34 1017.3
20260502213922 54 360 2.0 5.0 0.00 0.00 0.00 36 1017.3
20260502213439 54 360 2.0 4.0 0.00 0.00 0.00 36 1017.3
20260502212938 53 360 1.0 8.0 0.00 0.00 0.00 36 1017.3
20260502212458 53 360 2.0 6.0 0.00 0.00 0.00 37 1017.3
20260502211933 53 360 1.0 6.0 0.00 0.00 0.00 37 1017.3
20260502211433 53 360 2.0 6.0 0.00 0.00 0.00 35 1017.4
20260502210934 53 360 4.0 6.0 0.00 0.00 0.00 35 1017.5
20260502210452 52 360 2.0 8.0 0.00 0.00 0.00 35 1017.5
20260502205934 52 360 3.0 8.0 0.00 0.00 0.00 36 1017.5
20260502205434 53 360 2.0 8.0 0.00 0.00 0.00 37 1017.6
20260502204931 52 360 2.0 8.0 0.00 0.00 0.00 36 1017.6
20260502204433 52 360 3.0 8.0 0.00 0.00 0.00 37 1017.6
20260502203931 53 360 2.0 6.0 0.00 0.00 0.00 38 1017.8
20260502203452 53 360 2.0 6.0 0.00 0.00 0.00 37 1017.8
20260502202929 52 360 2.0 6.0 0.00 0.00 0.00 38 1017.9
20260502202426 52 360 3.0 6.0 0.00 0.00 0.00 38 1017.8
20260502201913 52 360 2.0 8.0 0.00 0.00 0.00 39 1018.0
20260502201414 53 360 3.0 8.0 0.00 0.00 0.00 36 1018.0
20260502200934 53 360 1.0 8.0 0.00 0.00 0.00 37 1018.1
20260502200451 52 360 3.0 10.0 0.00 0.00 0.00 39 1018.2
20260502195930 52 360 4.0 10.0 0.00 0.00 0.00 36 1018.1
20260502195430 52 360 3.0 10.0 0.00 0.00 0.00 40 1018.2
20260502194950 52 360 0.0 9.0 0.00 0.00 0.00 40 1018.4
20260502194430 52 360 4.0 9.0 0.00 0.00 0.00 39 1018.5
20260502193929 53 360 2.0 6.0 0.00 0.00 0.00 42 1018.6
20260502193428 52 360 2.0 6.0 0.00 0.00 0.00 39 1018.6
20260502192928 52 360 2.0 6.0 0.00 0.00 0.00 40 1018.6
20260502192428 52 360 2.0 6.0 0.00 0.00 0.00 42 1018.7
20260502191928 52 360 3.0 5.0 0.00 0.00 0.00 41 1018.8
20260502191428 51 360 2.0 6.0 0.00 0.00 0.00 39 1018.8
20260502190946 51 360 2.0 8.0 0.00 0.00 0.00 42 1018.8
20260502190444 52 360 2.0 8.0 0.00 0.00 0.00 42 1018.8
20260502185921 52 360 3.0 6.0 0.00 0.00 0.00 40 1018.9
20260502185422 51 360 2.0 6.0 0.00 0.00 0.00 41 1018.9
20260502184921 51 360 3.0 6.0 0.00 0.00 0.00 41 1018.9
20260502184419 51 360 2.0 10.0 0.00 0.00 0.00 42 1018.9
20260502183920 51 360 4.0 11.0 0.00 0.00 0.00 40 1019.0
20260502183436 51 360 6.0 11.0 0.00 0.00 0.00 38 1018.9
20260502182429 51 360 2.0 8.0 0.00 0.00 0.00 41 1019.1
20260502181925 51 360 3.0 8.0 0.00 0.00 0.00 41 1019.0
20260502181427 50 360 2.0 11.0 0.00 0.00 0.00 41 1019.1
20260502180923 50 360 5.0 11.0 0.00 0.00 0.00 40 1019.1
20260502180421 50 360 3.0 8.0 0.00 0.00 0.00 42 1019.1
20260502170418 49 360 3.0 6.0 0.00 0.00 0.00 43 1019.4
20260502163930 49 360 3.0 9.0 0.00 0.00 0.00 42 1019.5
20260502163427 49 360 2.0 5.0 0.00 0.00 0.00 44 1019.5
20260502162925 48 360 3.0 10.0 0.00 0.00 0.00 44 1019.5
20260502162420 48 360 4.0 10.0 0.00 0.00 0.00 42 1019.6
20260502161920 48 360 3.0 5.0 0.00 0.00 0.00 44 1019.6
20260502161418 47 360 3.0 5.0 0.00 0.00 0.00 42 1019.6
20260502160918 48 360 2.0 6.0 0.00 0.00 0.00 45 1019.6
20260502160436 47 360 3.0 9.0 0.00 0.00 0.00 47 1019.6
20260502151917 45 360 2.0 6.0 0.00 0.00 0.00 50 1019.6
20260502151433 45 360 2.0 6.0 0.00 0.00 0.00 51 1019.6
20260502150929 45 360 1.0 5.0 0.00 0.00 0.00 52 1019.6
20260502150447 45 360 1.0 5.0 0.00 0.00 0.00 53 1019.6
20260502130418 42 360 0.0 3.0 0.00 0.00 0.00 77 1019.4
20260502123416 37 360 0.0 1.0 0.00 0.00 0.00 92 1019.6
20260502122916 36 360 0.0 1.0 0.00 0.00 0.00 93 1019.5
20260502122414 35 360 0.0 0.0 0.00 0.00 0.00 93 1019.5
20260502121914 33 360 0.0 0.0 0.00 0.00 0.00 93 1019.6
20260502121414 32 360 0.0 0.0 0.00 0.00 0.00 93 1019.5
20260502120913 31 360 0.0 0.0 0.00 0.00 0.00 92 1019.5
20260502120433 31 360 0.0 0.0 0.00 0.00 0.00 92 1019.4
20260502115451 30 360 0.0 0.0 0.00 0.00 0.00 91 1019.2
20260502114928 30 360 0.0 0.0 0.00 0.00 0.00 91 1019.2
20260502113920 29 360 0.0 0.0 0.00 0.00 0.00 90 1019.1
20260502113418 29 360 0.0 0.0 0.00 0.00 0.00 90 1019.1
20260502112915 29 360 0.0 0.0 0.00 0.00 0.00 89 1019.1
20260502112433 29 360 0.0 0.0 0.00 0.00 0.00 89 1019.0
20260502111914 29 360 0.0 0.0 0.00 0.00 0.00 89 1018.9
20260502111414 29 360 0.0 0.0 0.00 0.00 0.00 89 1019.0
20260502110914 29 360 0.0 0.0 0.00 0.00 0.00 89 1018.9
20260502110414 29 360 0.0 0.0 0.00 0.00 0.00 89 1018.8
20260502105933 29 360 0.0 0.0 0.00 0.00 0.00 89 1018.7
20260502105430 29 360 0.0 0.0 0.00 0.00 0.00 89 1018.7
20260502104925 29 360 0.0 0.0 0.00 0.00 0.00 89 1018.9
20260502104422 29 360 0.0 0.0 0.00 0.00 0.00 89 1018.8
20260502103929 30 360 0.0 0.0 0.00 0.00 0.00 89 1018.8
20260502103442 30 360 0.0 0.0 0.00 0.00 0.00 89 1018.7
20260502102938 30 360 0.0 0.0 0.00 0.00 0.00 88 1018.7
20260502102457 30 360 0.0 0.0 0.00 0.00 0.00 88 1018.7
20260502101933 30 360 0.0 0.0 0.00 0.00 0.00 88 1018.8
20260502101430 30 360 0.0 0.0 0.00 0.00 0.00 88 1018.9
20260502100929 30 360 0.0 0.0 0.00 0.00 0.00 88 1018.8
20260502100444 30 360 0.0 0.0 0.00 0.00 0.00 88 1018.8
20260502091421 30 360 0.0 0.0 0.00 0.00 0.00 87 1018.7
20260502090938 30 360 0.0 0.0 0.00 0.00 0.00 87 1018.7
20260502090435 30 360 0.0 0.0 0.00 0.01 0.00 87 1018.6
20260502071441 31 360 0.0 0.0 0.00 0.02 0.00 86 1018.5
20260502070917 31 360 0.0 0.0 0.00 0.02 0.00 86 1018.4
20260502070436 31 360 0.0 0.0 0.00 0.07 0.00 86 1018.4
20260502065932 31 360 0.0 2.0 0.00 0.07 0.00 85 1018.5
20260502065429 31 360 0.0 2.0 0.00 0.07 0.00 85 1018.7
20260502064924 31 360 0.0 1.0 0.00 0.07 0.00 84 1018.6
20260502064423 31 360 0.0 0.0 0.00 0.07 0.00 84 1018.6
20260502063940 31 360 0.0 0.0 0.00 0.07 0.00 84 1018.5
20260502063436 31 360 0.0 0.0 0.00 0.07 0.00 84 1018.4
20260502062934 31 360 0.0 0.0 0.00 0.07 0.00 84 1018.4
20260502062450 31 360 0.0 0.0 0.00 0.07 0.00 84 1018.5
20260502061925 31 360 0.0 0.0 0.00 0.07 0.00 83 1018.5
20260502061421 32 360 0.0 0.0 0.00 0.07 0.00 83 1018.5
20260502060918 32 360 0.0 0.0 0.00 0.07 0.00 83 1018.6
20260502060436 32 360 0.0 0.0 0.00 0.11 0.00 81 1018.7
20260502055953 33 360 0.0 0.0 0.00 0.11 0.00 80 1018.7
20260502055428 33 360 0.0 0.0 0.00 0.11 0.00 80 1018.6
20260502054923 33 360 0.0 0.0 0.00 0.11 0.00 79 1018.6
20260502054419 33 360 0.0 0.0 0.00 0.11 0.00 79 1018.7
20260502053935 33 360 0.0 0.0 0.00 0.11 0.00 78 1018.7
20260502053431 33 360 0.0 0.0 0.00 0.11 0.00 78 1018.8
20260502052927 34 360 0.0 0.0 0.00 0.11 0.00 78 1019.0
20260502052425 34 360 0.0 0.0 0.00 0.11 0.00 78 1019.0
20260502051921 34 360 0.0 0.0 0.00 0.11 0.00 78 1018.9
20260502051420 34 360 0.0 0.0 0.00 0.11 0.00 77 1018.9
20260502050916 34 360 0.0 0.0 0.00 0.11 0.00 77 1018.8
20260502050415 34 360 0.0 0.0 0.00 0.20 0.00 77 1018.8
20260502045953 34 360 0.0 0.0 0.00 0.20 0.00 77 1018.9
20260502045432 34 360 0.0 0.0 0.00 0.20 0.00 77 1018.9
20260502044932 35 360 0.0 0.0 0.00 0.20 0.00 77 1018.9
20260502044432 35 360 0.0 0.0 0.00 0.20 0.00 76 1018.8
20260502043930 35 360 0.0 0.0 0.00 0.20 0.00 76 1018.9
20260502043449 35 360 0.0 0.0 0.00 0.20 0.00 76 1018.9
20260502042948 35 360 0.0 0.0 0.00 0.20 0.00 75 1018.9
20260502042427 35 360 0.0 0.0 0.00 0.20 0.00 74 1019.0
20260502041927 36 360 0.0 0.0 0.00 0.20 0.00 74 1019.0
20260502041427 36 360 0.0 0.0 0.00 0.20 0.00 74 1018.9
20260502040927 36 360 0.0 0.0 0.00 0.20 0.00 73 1018.9
20260502040427 36 360 0.0 0.0 0.00 0.27 0.20 73 1018.9
20260502035947 36 360 0.0 0.0 0.00 0.27 0.20 72 1018.9
20260502035426 36 360 0.0 0.0 0.00 0.27 0.20 72 1018.9
20260502034945 37 360 0.0 0.0 0.00 0.27 0.20 72 1018.9
20260502034445 37 360 0.0 0.0 0.00 0.27 0.20 72 1018.9
20260502033923 37 360 0.0 0.0 0.00 0.27 0.20 71 1018.9
20260502033422 37 360 0.0 0.0 0.00 0.27 0.20 71 1018.8
20260502032924 37 360 0.0 0.0 0.00 0.27 0.20 71 1018.7